www.pogodaiklimat.ru

Погода и климат >> Архив погоды >> Индия >> Уттар-Прадеш >> Бахрайч


ПОГОДА в Бахрайче

  • Прогноз погоды в Бахрайче
  • Монитор погоды в Бахрайче

АРХИВ ПОГОДЫ в Бахрайче

Время (UTC), дата Ветер
(напр.,м/с)
 
Видим.   Явления Облачность Т
(С)
Тd
(С)
f
(%)
Тe
(С)
Тes
(С)
Комфортность P
(гПа)
Po
(гПа)
Тmin
(С)
Tmax
(С)
R
(мм)
R24
(мм)
S
(см)
21 9.09 ЮВ 1 2000 м мгла 6/4 750 м
[Sc Ac trans]
+28.6 +26.2 87 +43 +43 опасность
перегрева
999.4 985.5
00 10.09 ЮВ 2 2000 м мгла 6/4 750 м
[Sc Ac trans]
+29.0 +26.2 85 +44 +44 опасность
перегрева
999.8 985.9
03 10.09 ЮВ 2 2000 м мгла 3/0
[Ac trans]
+31.0 +26.3 76 +47 +53 опасность
перегрева
1000.7 986.9 +25.8 +34.6
06 10.09 ЮВ 2 2000 м мгла 9/6 600 м
[Sc Ac trans]
+33.0 +26.0 67 +49 +53 опасность
перегрева
1000.1 986.4
09 10.09 ЮВ 2 2000 м мгла 6/4 600 м
[Sc Ac trans]
+35.0 +26.7 62 +52 +58 опасность
перегрева
998.0 984.4
12 10.09 ЮВ 1 2000 м мгла 5/4 600 м
[Sc Ac trans]
+33.4 +26.2 66 +50 +50 опасность
перегрева
997.5 983.8 +35.4
15 10.09 СВ 1 2000 м мгла 3/0 600 м
[Ac trans]
+30.8 +26.9 80 +48 +48 опасность
перегрева
1000.3 986.5
18 10.09 В 1 2000 м мгла 8/5 600 м
[Sc Ac trans]
+30.6 +27.0 81 +48 +48 опасность
перегрева
1001.2 987.3
21 10.09 ЮВ 2 2000 м мгла 6/4 600 м
[Sc Ac trans]
+30.0 +26.7 83 +47 +47 опасность
перегрева
1000.8 986.9
00 11.09 ЮВ 2 2000 м мгла 9/6 600 м
[Sc Ac trans]
+28.0 +25.2 85 +41 +41 опасность
перегрева
1000.7 986.7
03 11.09 ЮВ 1 2000 м мгла 4/0
[Ac trans]
+28.8 +25.7 83 +43 +49 опасность
перегрева
1002.4 988.4 +24.8 +35.4
06 11.09 ЮВ 2 2000 м мгла 6/4 750 м
[Sc Ac trans]
+32.4 +26.6 72 +50 +59 опасность
перегрева
1002.1 988.3
09 11.09 ЮВ 2 2000 м мгла 8/5 600 м
[Sc Ac trans]
+34.0 +26.2 64 +50 +54 опасность
перегрева
1000.4 986.7
12 11.09 ЮВ 2 2000 м мгла 9/6 600 м
[Sc Ac trans]
+32.6 +26.2 69 +49 +49 опасность
перегрева
999.3 985.5 +34.4
15 11.09 ЮВ 1 2000 м мгла 6/4 600 м
[Sc Ac trans]
+31.0 +26.8 78 +48 +48 опасность
перегрева
1002.3 988.4
18 11.09 ЮВ 2 2000 м мгла 8/6 600 м
[Sc Ac trans]
+30.0 +27.2 85 +48 +48 опасность
перегрева
1002.9 989.0
21 11.09 ЮВ 2 2000 м мгла 9/6 600 м
[Sc Ac trans]
+29.0 +26.8 88 +45 +45 опасность
перегрева
1002.6 988.6
00 12.09 ЮВ 2 2000 м мгла 9/6 600 м
[Sc Ac trans]
+28.4 +25.9 86 +42 +42 опасность
перегрева
1002.5 988.5
03 12.09 ЮВ 3 2000 м мгла 9/6 600 м
[Sc Ac trans]
+29.0 +25.9 83 +43 +44 опасность
перегрева
1004.7 990.7 +25.4 +34.4
06 12.09 ЮВ 2 2000 м мгла 8/6 600 м
[Sc Ac trans]
+32.2 +26.4 72 +49 +54 опасность
перегрева
1004.2 990.4
09 12.09 ЮВ 3 2000 м мгла 8/5 600 м
[Sc Ac trans]
+32.6 +25.9 68 +48 +52 опасность
перегрева
1000.9 987.1
12 12.09 ЮВ 2 2000 м мгла 9/6 600 м
[Sc Ac trans]
+31.6 +25.4 70 +46 +46 опасность
перегрева
1000.8 987.0 +33.6
18 12.09 В 2 2000 м мгла {дождь} 9/6 600 м
[Sc Ac trans]
+28.6 +26.4 88 +44 +44 опасность
перегрева
1004.5 990.5 3
21 12.09 СВ 2 2000 м мгла 10/8 600 м
[Sc As op]
+28.0 +25.4 86 +41 +41 опасность
перегрева
1002.5 988.5 3
00 13.09 ЮВ 2 2000 м мгла 9/6 600 м
[Sc Ac trans]
+27.6 +24.1 81 +38 +38 очень
душно
1003.1 989.1 3
03 13.09 ЮВ 3 2000 м мгла 9/6 600 м
[Sc Ac trans]
+29.0 +24.4 76 +41 +42 опасность
перегрева
1004.8 990.8 +24.5 +33.6 3
06 13.09 ЮВ 4 2000 м мгла 9/6 600 м
[Sc Ac trans]
+30.6 +24.9 72 +44 +47 опасность
перегрева
1004.6 990.7
09 13.09 ЮВ 4 2000 м мгла {дождь} 8/5 600 м
[Sc Ac trans]
+29.6 +26.5 83 +45 +48 опасность
перегрева
1002.4 988.5 1
12 13.09 ЮВ 2 2000 м слаб. дождь 10/8 600 м
[Sc As op]
+28.2 +25.4 85 +41 +41 опасность
перегрева
1001.8 987.8 +31.0 1
15 13.09 ЮВ 4 2000 м мгла {дождь} 9/6 600 м
[Sc Ac trans]
+27.4 +25.4 89 +40 +40 очень
душно
1004.3 990.2 2
18 13.09 ЮВ 2 2000 м слаб. дождь 10/8 600 м
[Sc As op]
+27.0 +25.6 92 +40 +40 очень
душно
1005.1 991.0 2
21 13.09 ЮВ 2 2000 м мгла {дождь} 10/8 600 м
[Sc As op]
+27.0 +25.3 90 +39 +39 очень
душно
1003.2 989.1 3
00 14.09 ЮВ 2 2000 м мгла 10/8 600 м
[Sc As op]
+27.0 +25.8 93 +40 +40 очень
душно
1003.8 989.7 3
03 14.09 ЮВ 2 2000 м слаб. дождь 10/8 600 м
[Sc As op]
+27.0 +25.6 92 +40 +40 очень
душно
1005.6 991.5 +23.6 +31.0 3
06 14.09 ЮВ 4 2000 м в посл. час дождь 10/8 600 м
[Sc As op]
+26.6 +25.7 95 +39 +40 очень
душно
1005.9 991.8 9
09 14.09 ЮВ 2 2000 м слаб. дождь 10/8 600 м
[Sc As op]
+26.6 +24.9 90 +38 +38 очень
душно
1004.1 990.0 13
12 14.09 ЮВ 2 2000 м мгла {дождь} 9/6 600 м
[Sc Ac trans]
+27.6 +25.8 90 +41 +41 опасность
перегрева
1003.5 989.5 +28.0 14
15 14.09 ЮВ 1 2000 м мгла {дождь} 9/6 600 м
[Sc Ac trans]
+27.0 +25.9 94 +40 +40 очень
душно
1005.3 991.2 14
18 14.09 ЮВ 1 2000 м мгла 9/6 600 м
[Sc Ac trans]
+27.0 +25.9 94 +40 +40 очень
душно
1005.4 991.3 14
21 14.09 ЮВ 1 2000 м мгла 9/8 600 м
[Sc Ac trans]
+26.6 +25.2 92 +38 +38 очень
душно
1000.2 986.2 14
00 15.09 ЮВ 2 2000 м мгла 9/6 600 м
[Sc Ac trans]
+26.4 +25.0 92 +38 +38 очень
душно
1004.8 990.7 14
03 15.09 ЮВ 2 2000 м мгла {дождь} 10/8 600 м
[Sc As op]
+27.0 +25.6 92 +40 +40 очень
душно
1006.4 992.3 +23.4 +28.0 15
06 15.09 ЮВ 2 2000 м мгла 9/6 600 м
[Sc Ac trans]
+30.8 +26.3 77 +47 +51 опасность
перегрева
1005.8 991.9
12 15.09 ЮВ 1 2000 м мгла 6/4 600 м
[Sc Ac trans]
+31.2 +26.2 75 +47 +47 опасность
перегрева
1002.0 988.1 +32.6
15 15.09 штиль 0 2000 м мгла 6/4 600 м
[Sc Ac trans]
+29.8 +26.7 83 +46 +46 опасность
перегрева
1003.8 989.9
18 15.09 ЮВ 1 2000 м мгла 8/6 600 м
[Sc Ac trans]
+28.4 +25.9 86 +42 +42 опасность
перегрева
1004.1 990.1
00 16.09 ЮВ 1 2000 м мгла 8/5 600 м
[Sc Ac trans]
+27.0 +25.9 94 +40 +40 очень
душно
1003.2 989.1
03 16.09 ЮВ 1 2000 м мгла 10/8 600 м
[Sc As op]
+27.8 +25.8 89 +41 +42 опасность
перегрева
1004.5 990.5 +24.4 +32.6
06 16.09 ЮВ 1 2000 м мгла 9/6 600 м
[Sc Ac trans]
+30.0 +24.9 74 +43 +47 опасность
перегрева
1004.4 990.5
09 16.09 ЮВ 2 2000 м мгла 8/5 750 м
[Sc Ac trans]
+31.6 +25.1 69 +46 +50 опасность
перегрева
1001.5 987.7
12 16.09 ЮВ 1 2000 м мгла 9/8 600 м
[Sc Ac trans]
+31.2 +25.9 73 +46 +46 опасность
перегрева
1000.7 986.9 +32.6
15 16.09 ЮВ 1 2000 м мгла 9/6 600 м
[Sc Ac trans]
+28.6 +26.4 88 +44 +44 опасность
перегрева
1002.7 988.7
18 16.09 СВ 1 2000 м мгла 4/0
[Ac trans]
+27.4 +25.4 89 +40 +40 очень
душно
1004.1 990.0

 

Местоположение метеостанции Бахрайч (Уттар-Прадеш, Индия): широта 27.57 долгота 81.60 высота над уровнем моря 124 м.

В архиве по умолчанию представлена погода в Бахрайче за последнюю неделю. Архивные данные за месяц целиком и за предыдущие месяцы, начиная с января 2011 года, Вы можете получить, выбрав интересующий диапазон дат из раскрывающегося списка и нажав кнопку "Ввод!".


*Определитесь, кто Вы:
робот инопланетянин человек

Внимание! Время в таблицах - всемирное. Для получения местного времени необходимо прибавить поправку, которая равна 5.5 ч.

Смотрите также архив погоды в соседних городах и на ближайших метеорологических станциях:

Погода в Непалгандже (Непал) (59 км)
Погода в Гхорахи (Непал) (103 км)
Погода в Суркхете (Непал) (115 км)
Погода в Лакхнау (Уттар-Прадеш, Индия) (116 км)
Погода в Ферсатгиндже (Уттар-Прадеш, Индия) (149 км)
Погода в Султанпуре (Уттар-Прадеш, Индия) (152 км)
Погода в Дхангадхи (Непал) (171 км)
Погода в Сиддхартханагаре (Непал) (183 км)
Погода в Дипаял-Силгадхи (Непал) (197 км)
Погода в Горакпуре (Уттар-Прадеш, Индия) (197 км)

Пояснения к столбцам:

Ветер - указаны скорость ветра в м/с - средняя за 10 мин, порывы в срок и между сроками (в фигурных скобках) и направление, откуда дует ветер: С - северный, СВ - северо-восточный, В - восточный, ЮВ - юго-восточный, Ю - южный, ЮЗ - юго-западный, З - западный, СЗ - северо-западный.
Видимость - горизонтальная дальность видимости в метрах или километрах. При видимости от 1 до 10 км при отсутствии осадков обычно наблюдается дымка, при ухудшении видимости до 1 км и менее - туман. В сухую погоду видимость может ухудшаться дымом, пылью или мглою.
Явления - указаны атмосферные явления, наблюдавшиеся в срок или в последний час перед сроком; фигурными скобками обозначены явления, наблюдавшиеся между сроками (за 1-3 часа до срока); квадратными скобками обозначены град или гололедные отложения с указанием их диаметра в мм.
Облачность - указаны через наклонную черту общая и нижняя облачность в баллах и высота нижней границы облаков в метрах; квадратными скобками обозначены формы облаков: Ci - перистые, Cs - перисто-слоистые, Cc - перисто-кучевые, Ac - высококучевые, As - высокослоистые, Sc - слоисто-кучевые, Ns - слоисто-дождевые, Cu - кучевые, Cb - кучево-дождевые. Подробнее классификацию облаков см. в Атласе облаков (PDF).
T - Температура воздуха - температура, измеренная на высоте 2 м над землей.
Td - Температура точки росы - температура, при понижении до которой содержащийся в воздухе водяной пар достигнет насыщения.
f - Относительная влажность воздуха - влажноcть воздуха, измеренная на высоте 2 м над землей.
Te - Эффективная температура - температура, которую ощущает одетый по сезону человек в тени. Характеристика душности погоды. При расчете учитывается влияние влажности воздуха и скорости ветра на теплоощущения человека.
Tes - Эффективная температура на солнце - температура, которую ощущает человек, с поправкой на солнечный нагрев. Характеристика знойности погоды. Зависит от высоты солнца над горизонтом, облачности и скорости ветра. Ночью, в пасмурную погоду, а также при ветре 12 м/с и более поправка равна нулю.
P - Атмосферное давление - приведенное к уровню моря атмосферное давление.
Po - Атмосферное давление - измеренное на уровне метеостанции атмосферное давление.
Tmin - Минимальная температура - минимум температуры воздуха на высоте 2 м над землей.
Tmax - Максимальная температура - максимум температуры воздуха на высоте 2 м над землей.
R - Количество осадков - Количество выпавших осадков за период времени, мм. При наведении курсора мыши на число - период времени, за который выпало указанное количество осадков.
R24 - Количество осадков - Количество выпавших осадков за 24 часа, мм.
S - Снежный покров - Высота снежного покрова, см. При наведении курсора мыши на число - состояние снежного покрова и степень покрытия местности в баллах.